STARLINK-5171, 54077

Orbit data source: Space-Track

STARLINK-5171, 54077 is a payload satellite owned by SpaceX/Seattle (US) in LEO that was launched on Thu, 20 Oct 2022 UTC via an FALCON 9 launch vehicle from the Air Force Eastern Test Range (AFETR). Payload-class satellites include a variety of spacecraft equipped with specific instruments for various scientific and technological missions. These include communications satellites like Starlink; space stations such as the ISS; scientific satellites like the Hubble; Earth observation satellites from companies like Planet Labs, Umbra, and HawkEye 360; GPS; miniature CubeSats for education and research; and military/defense satellites.

Loading next visibility...
Identifier
54077, 2022-136AC
Orbit
LEO
Country
Flag of USUS
Related business
Manufacturer
SpaceX/Seattle
Mission
Operational Commercial Communications
Bus & Motor
STARLINK, Unknown motor
Mass
305 kg wet, ~290 kg dry
Launch date (UTC)
2022-10-20 (3 years ago)
Launch vehicle
FALCON 9
Launch site
Air Force Eastern Test Range (AFETR)
Object type
Payload
Rocket body
Debris
Shape & HBR
Box + 1 Pan, 4.4 m
Radar Cross Section
13.562 m², Large (>1 m²)

Expand to show TLE details & history
Last TLE update: 21 hours ago

TLE from 21 hours ago
0 STARLINK-5171
1 54077U 22136AC  25260.64513445 -.00000634  00000-0 -21758-4 0  9996
2 54077  53.2191  16.5849 0001288  93.3900 266.7240 15.08840757161068
Epoch: 2025-09-17T15:28Z
TLE epoch observation values (Epoch: 2025-09-17T15:28:59.616Z)
Latitude
0.00002°
Longitude
147.5184°
Altitude
540.69 km
Speed
7.593 km/s
True Right ascension
01h 06m 20s
True Declination
0° 00' 00"
Sunlit
Object was in full shadow at epoch
Visualization orbit readout
Latitude
Unknown
Longitude
Unknown
Altitude
Unknown
Speed
Unknown
Apparent Right ascension
Unknown
Apparent Declination
Unknown
Sunlit
N/A
Visualization observer readout
Local Sidereal Time
05:01:18
Azimuth
Unknown
Elevation
Unknown
Doppler factor
Unknown
Orbital elements
Apogee altitude
540.877 km
Perigee altitude
539.095 km
Semi-major axis
6,918.123 km
Eccentricity
0.00013
Inclination
53.2191°
RAAN
16.5849°
Arg. of periapsis
93.39°
True anomaly
266.70926°
Mean anomaly
266.724°
Eccentric anomaly
266.71663°
Mean motion
3.77191 °/min
Orbital period
95.44 mins
BSTAR
-0.000021758
Loading maneuver chart data...
Computing Atmospheric mass density...
Loading historical data...
Loading historical data...
Loading historical data...
Loading historical data...
Loading historical data...
Loading historical data...
Loading historical data...

Documentation

Showing up to 5 results
|